Retour au catalogue

STARLINK-2461

ActifCommunicationsVLEO
NORAD 48428·PAYLOAD·🇺🇸 United States

Lancé May 9, 2021 depuis Cape Canaveral Space Force Station

Loading…

Prochains Passages (prochaines 24 heures)

TLE

FraisSource: CelesTrak SupGP

Époque: Sep 14, 2026, 21:13 UTC

1 48428C 21040A   26257.88451389  .00004003  00000+0  12886-3 0  2572
2 48428  53.1593  18.2598 0001164  77.3177 129.3199 15.31669574    13

Suivez STARLINK-2461 en temps réel avec AllMySat

Download on the App Store